STARLINK-1740, 46566

Orbit data source: Space-Track

STARLINK-1740, 46566 is a payload satellite owned by SpaceX/Seattle (US) in LEO that was launched on Tue, 06 Oct 2020 UTC via an FALCON 9 launch vehicle from the Air Force Eastern Test Range (AFETR). Payloads include a variety of satellites, spacecraft, and rockets equipped with specific instruments for various scientific and technological missions. These include communications satellites like Starlink; space stations such as the ISS; scientific satellites like the Hubble; Earth observation satellites from companies like Planet Labs, Umbra, and HawkEye 360; GPS; miniature CubeSats for education and research; and military/defense satellites.

Loading next visibility...
STARLINK-1740 details
Identifier
46566, 2020-070AL
Orbit
LEO
Last TLE update8 hours ago
Origin
Flag of USSpaceX/Seattle (US)
ManufacturerSpaceX/Seattle
MissionOperational Commercial Communications
Bus & MotorSTARLINK, Unknown motor
Mass260 kg wet, ~248 kg dry
Launch date (UTC)
2020-10-06 (4 years ago)
Launch vehicle
FALCON 9
Launch site
Air Force Eastern Test Range (AFETR)
Object type
Payload
Rocket body
Debris
Shape & HBRBox + 1 Pan, 8.86 m
Radar Cross Section13.562 m², Large (>1 m²)

Expand to show TLE details & history

TLE from 8 hours ago
0 STARLINK-1740
1 46566U 20070AL  24361.13623338  .00028075  00000-0  18949-2 0  9996
2 46566  53.0564 325.3616 0001506  78.1554 281.9604 15.06425252233369
Epoch: 2024-12-26T03:16Z
Definitive object data (Epoch: 2024-12-26T03:16:10.564Z)
Latitude0.00001°
Longitude-178.80237°
Altitude547.798 km
Speed7.589 km/s
True Right ascension21h 41m 26s
True Declination0° 00' 00"
Sunlit
Object was in daylight at TLE epoch
Visualization TLE readout
Latitude-52.77668°
Longitude99.88105°
Altitude566.414 km
Speed7.577 km/s
Apparent Right ascension19h 31m 34s
Apparent Declination-55° 48' 54"
Sunlit
Object is in daylight
Visualization observer readout
Local Sidereal Time10:12:49
Azimuth134.687° SE
Elevation-59.25°
Doppler factor1
Orbital elements
Apogee altitude548.448 km
Perigee altitude546.362 km
Semi-major axis6,925.542 km
Eccentricity0.0001506
Inclination53.0564°
RAAN325.3616°
Arg. of periapsis78.1554°
True anomaly281.94352°
Mean anomaly281.9604°
Eccentric anomaly281.95196°
Mean motion3.76585 °/min
BSTAR0.0018949
Orbital period95.6 mins
Loading maneuver chart data...
Loading historical data...
Loading historical data...
Loading historical data...
Loading historical data...
Loading historical data...
Loading historical data...
Loading historical data...

STARLINK-1740 Visibility forecast

Observer location: undefined°, undefined

Span
Click to sort rows by Start time (UTC) header in descending order
Start Az.
Max El. time (UTC)
Max El. Az.
Max El.
End time (UTC)
End Az.
7 mins2024-12-27 00:07:34.420Z211.156° SW2024-12-27 00:11:34.420Z117.255° SE38.103°2024-12-27 00:14:34.420Z61.102° ENE
5 mins2024-12-27 01:48:34.420Z283.689° WNW2024-12-27 01:50:34.420Z322.192° NNW24.644°2024-12-27 01:53:34.420Z24.657° NE
6 mins2024-12-27 06:50:34.420Z327.186° NNW2024-12-27 06:52:34.420Z25.148° NE38.942°2024-12-27 06:56:34.420Z113.572° SE
4 mins2024-12-27 08:30:34.420Z259.13° W2024-12-27 08:31:34.420Z239.849° WSW19.457°2024-12-27 08:34:34.420Z187.072° SSW
|